Location: �bnet
(46.9957°N, 8.4908°E)
Time: 14:44:49
(UTC+00:00)

Cosmos 1238 Rocket - Pass Details

Date: 11 May 2021
Orbit: 374 x 1021 km, 83.0° (Epoch: 18 June)

Event Time Altitude Azimuth Distance (km) Brightness Sun altitude
Rises 22:13:33 0° 350° (N) 3,708 8.5 -23.1°
Reaches altitude 10° 22:16:13 10° 350° (N) 2,701 7.4 -23.2°
Maximum altitude 22:22:27 81° 264° (W) 883 3.7 -23.5°
Enters shadow 22:23:44 55° 188° (S) 1,008 3.7 -23.6°
